KS8S Weather Reports


time (UTC)temp
F
wind
direction
speed
knots
gust
knots
rain 1hr
in
rain 24hr
in
rain mn
in
humidity
%
barometer
mb
20260903024524 75 209 0.9 1.7 0.00 0.00 0.00 90 1014.4
20260903023021 76 209 0.9 1.7 0.00 0.00 0.00 89 1014.4
20260903021513 76 209 1.7 2.6 0.00 0.00 0.00 89 1014.4
20260903020020 76 209 1.7 2.6 0.00 0.00 0.00 88 1014.5
20260903014529 77 209 0.9 1.7 0.00 0.00 0.00 87 1014.3
20260903013029 78 209 0.9 0.9 0.00 0.00 0.00 85 1014.4
20260903011525 79 209 1.7 2.6 0.00 0.00 0.00 84 1014.4
20260903010026 80 228 1.7 3.5 0.00 0.00 0.00 83 1014.1
20260903004520 81 228 2.6 4.3 0.00 0.00 0.00 82 1014.0
20260903003013 81 208 4.3 5.2 0.00 0.00 0.00 81 1013.9
20260903001534 82 213 3.5 6.1 0.00 0.00 0.00 80 1013.9
20260903000040 83 222 4.3 5.2 0.00 0.00 0.00 79 1014.0
20260902234529 84 215 3.5 5.2 0.00 0.00 0.00 78 1014.0
20260902233027 85 223 3.5 6.1 0.00 0.00 0.00 77 1014.0
20260902231525 86 219 3.5 6.1 0.00 0.00 0.00 76 1014.0
20260902230019 86 213 3.5 5.2 0.00 0.00 0.00 75 1014.0
20260902224538 87 219 3.5 6.1 0.00 0.00 0.00 75 1014.1
20260902223050 87 217 5.2 7.8 0.00 0.00 0.00 71 1014.2
20260902221533 88 229 6.1 10.4 0.00 0.00 0.00 71 1014.1
20260902220004 88 227 6.1 8.7 0.00 0.00 0.00 70 1014.1
20260902214504 88 219 7.0 10.4 0.00 0.00 0.00 69 1014.2
20260902213006 89 215 7.8 11.3 0.00 0.00 0.00 68 1014.4
20260902211510 89 217 7.8 12.2 0.00 0.00 0.00 68 1014.4
20260902210007 89 238 7.0 10.4 0.00 0.00 0.00 66 1014.4
20260902204508 89 205 7.8 12.2 0.00 0.00 0.00 65 1014.6
20260902203010 89 219 9.6 13.9 0.00 0.00 0.00 67 1014.7
20260902201506 89 238 9.6 13.9 0.00 0.00 0.00 67 1014.8
20260902200008 89 226 8.7 12.2 0.00 0.00 0.00 65 1015.0
20260902194507 89 244 7.0 12.2 0.00 0.00 0.00 67 1015.1
20260902193008 89 217 8.7 13.0 0.00 0.00 0.00 66 1015.3
20260902191509 90 204 5.2 10.4 0.00 0.00 0.00 69 1015.3
20260902190009 90 218 7.8 11.3 0.00 0.00 0.00 66 1015.5
20260902184509 89 242 7.0 11.3 0.00 0.02 0.00 67 1015.6
20260902183032 89 220 5.2 12.2 0.00 0.02 0.00 71 1015.8
20260902181511 89 231 8.7 12.2 0.00 0.02 0.00 69 1015.9
20260902180012 89 223 7.0 10.4 0.00 0.02 0.00 69 1016.0
20260902174518 89 240 7.0 10.4 0.00 0.02 0.00 68 1016.2
20260902173024 88 190 7.0 8.7 0.00 0.02 0.00 70 1016.4
20260902171512 88 246 6.1 9.6 0.00 0.02 0.00 71 1016.5
20260902170013 88 227 5.2 8.7 0.00 0.02 0.00 72 1016.5
20260902164522 87 244 7.0 9.6 0.00 0.02 0.00 71 1016.7
20260902163013 86 225 5.2 8.7 0.00 0.02 0.00 75 1017.0
20260902161516 85 247 4.3 9.6 0.00 0.02 0.00 76 1017.1
20260902160019 85 217 5.2 9.6 0.00 0.02 0.00 76 1017.1
20260902154517 86 233 7.8 10.4 0.00 0.02 0.00 72 1017.0
20260902153021 85 238 6.1 9.6 0.00 0.02 0.00 75 1017.0
20260902151518 84 250 6.1 10.4 0.00 0.02 0.00 75 1017.0
20260902150021 83 240 5.2 10.4 0.00 0.02 0.00 77 1017.0
20260902144520 83 254 6.1 10.4 0.00 0.02 0.00 78 1016.7
20260902143021 82 227 5.2 9.6 0.00 0.02 0.00 81 1016.7
20260902141519 81 226 7.8 10.4 0.00 0.02 0.00 80 1016.6
20260902140025 80 241 6.1 9.6 0.00 0.02 0.00 83 1016.5
20260902134520 79 240 7.0 9.6 0.00 0.02 0.00 84 1016.6
20260902133027 79 225 5.2 7.8 0.00 0.02 0.00 85 1016.6
20260902131524 77 219 5.2 7.8 0.00 0.02 0.00 86 1016.5
20260902130008 76 228 3.5 6.1 0.00 0.32 0.00 88 1016.6
20260902124505 75 221 3.5 5.2 0.00 0.51 0.00 90 1016.5
20260902123004 74 209 2.6 3.5 0.00 0.57 0.00 91 1016.7
20260902121521 73 225 2.6 4.3 0.00 0.70 0.00 92 1016.7
20260902120019 72 221 1.7 3.5 0.00 0.70 0.00 93 1016.7
20260902114511 71 221 1.7 3.5 0.00 0.70 0.00 93 1016.6
20260902113012 71 221 1.7 1.7 0.00 0.70 0.00 93 1016.6
20260902111507 70 221 1.7 2.6 0.00 0.70 0.00 93 1016.5
20260902110014 70 221 0.9 1.7 0.00 0.70 0.00 92 1016.4
20260902104549 71 221 0.9 1.7 0.00 0.70 0.00 92 1016.4
20260902103044 72 221 0.9 1.7 0.00 0.70 0.00 91 1016.2
20260902101516 72 221 0.0 0.9 0.00 0.70 0.00 92 1016.1
20260902100013 72 221 0.9 0.9 0.00 0.70 0.00 91 1016.2
20260902094510 73 221 0.0 0.9 0.00 0.70 0.00 91 1016.1
20260902093009 73 221 0.0 2.6 0.00 0.70 0.00 90 1015.9
20260902091506 74 221 1.7 3.5 0.00 0.70 0.00 90 1016.0
20260902090035 74 222 2.6 4.3 0.00 0.70 0.00 90 1015.9
20260902084534 74 248 0.9 3.5 0.00 0.70 0.00 90 1016.0
20260902083020 75 229 2.6 7.0 0.00 0.70 0.00 90 1015.8
20260902081514 75 226 3.5 7.0 0.00 0.70 0.00 90 1015.6
20260902080015 75 217 3.5 6.1 0.00 0.70 0.00 90 1015.6
20260902074509 74 224 2.6 3.5 0.00 0.70 0.00 91 1015.5
20260902073030 74 224 0.9 1.7 0.00 0.70 0.00 91 1015.5
20260902071524 74 224 0.0 1.7 0.00 0.70 0.00 90 1015.5
20260902070025 74 224 1.7 3.5 0.00 0.70 0.00 90 1015.4
20260902064522 75 230 1.7 2.6 0.00 0.70 0.00 90 1015.4
20260902063037 75 230 1.7 3.5 0.00 0.70 0.00 90 1015.6
20260902061514 75 223 1.7 3.5 0.00 0.70 0.00 90 1015.6
20260902060039 75 228 1.7 3.5 0.00 0.70 0.00 90 1015.7
20260902054534 76 229 4.3 5.2 0.00 0.70 0.00 90 1015.8
20260902053032 76 231 3.5 6.1 0.00 0.70 0.00 90 1015.7
20260902051529 76 237 2.6 4.3 0.00 0.70 0.00 90 1015.8
20260902050024 76 235 2.6 5.2 0.00 0.70 0.00 89 1015.7
20260902044526 77 232 3.5 5.2 0.00 0.70 0.00 89 1015.5
20260902043036 77 232 3.5 5.2 0.00 0.70 0.00 89 1015.5
20260902041539 77 236 5.2 7.0 0.00 0.70 0.00 89 1015.3
20260902040035 78 236 4.3 7.8 0.00 0.70 0.00 88 1015.2
20260902034530 77 221 3.5 4.3 0.00 0.70 0.70 90 1015.1
20260902033024 76 216 3.5 5.2 0.00 0.70 0.70 91 1015.0
20260902031539 75 213 3.5 4.3 0.00 0.70 0.70 92 1015.0
20260902030034 74 219 2.6 2.6 0.00 0.70 0.70 90 1015.2